Regional Weather Roundup
Issued by NWS

Current Version | Previous Version | Text Only | Print | Product List | Glossary On
Versions: 1 2 3 4 5 6 7 8 9 10 11 12 13 14 15 16 17 18 19 20 21 22 23 24 25 26 27 28 29 30 31 32 33 34 35 36 37 38 39 40 41 42 43 44 45 46 47 48 49 50
000
ASUS43 KOAX 202202
RWRNE

WEATHER ROUNDUP FOR NEBRASKA
NATIONAL WEATHER SERVICE OMAHA NE
500 PM CDT SUN MAY 20 2018

NOTES: SATELLITE DATA IS BEING USED TO AUGMENT CLOUD COVER ABOVE
       12000 FEET.
       "FAIR" INDICATES FEW OR NO CLOUDS BELOW 12,000 FEET WITH NO
       SIGNIFICANT WEATHER AND/OR OBSTRUCTIONS TO VISIBILITY.


NEZ001>004-019>022-054>056-202300-
NEBRASKA PANHANDLE

CITY           SKY/WX    TMP DP  RH WIND       PRES   REMARKS
SCOTTSBLUFF    MOSUNNY   61  44  53 VRB3      30.13F
ALLIANCE       MOSUNNY   60  37  42 E3        30.13F
CHADRON        CLOUDY    61  38  42 NE7       30.13F
GORDON         FAIR      60  36  40 NE7       30.14F
KIMBALL        CLOUDY    58  44  58 E6        30.15F
SIDNEY         CLOUDY    59  41  51 E8        30.14F
$$

NEZ057>060-069>072-079>082-202300-
SOUTHWEST NEBRASKA

CITY           SKY/WX    TMP DP  RH WIND       PRES   REMARKS
NORTH PLATTE   CLOUDY    64  46  52 NE8       30.11F
IMPERIAL       CLOUDY    61  45  55 VRB5      30.14F
LEXINGTON      CLOUDY    58  52  80 E3        30.13S
MCCOOK         CLOUDY    62  48  60 VRB6      30.12F
OGALLALA       MOSUNNY   62  44  52 E5        30.13F
$$

NEZ005>010-023>029-035>040-094-202300-
NORTH CENTRAL NEBRASKA

CITY           SKY/WX    TMP DP  RH WIND       PRES   REMARKS
VALENTINE      CLOUDY    62  41  46 N9        30.14F
AINSWORTH      CLOUDY    59  47  64 N6        30.14F
BROKEN BOW     CLOUDY    60  50  69 N10       30.11F
O`NEILL        CLOUDY    59  49  69 N7        30.13F
ORD            CLOUDY    57  50  77 NE8       30.11F
THEDFORD       CLOUDY    62  38  40 N8        30.14F
$$

NEZ041-046>049-061>064-073>077-083>087-202300-
SOUTH CENTRAL NEBRASKA

CITY           SKY/WX    TMP DP  RH WIND       PRES   REMARKS
GRAND ISLAND   CLOUDY    56  51  84 NE12      30.12F
AURORA         CLOUDY    54  53  99 N12       30.11S
HASTINGS       CLOUDY    56  52  86 NE13      30.12S
HEBRON         CLOUDY    57  54  92 N8        30.10S
HOLDREGE       CLOUDY    56  53  88 NE9       30.12F
KEARNEY        CLOUDY    56  52  86 N10       30.13F
YORK           CLOUDY    54  54 100 NE12      30.11S
$$

NEZ011>018-030>034-042>045-202300-
NORTHEAST NEBRASKA

CITY           SKY/WX    TMP DP  RH WIND       PRES   REMARKS
NORFOLK        CLOUDY    53  50  89 N9        30.11F
ALBION         CLOUDY    55  51  86 N8        30.12F
BLAIR          LGT RAIN  55  53  95 N5        30.10R
COLUMBUS       CLOUDY    53  51  93 N8        30.12F
FREMONT        CLOUDY    56  53  92 NE3       30.11R
TEKAMAH        CLOUDY    55  53  93 N15       30.08F
WAYNE          CLOUDY    53  52  97 N10       30.12F
$$

NEZ050>053-065>068-078-088>093-202300-
SOUTHEAST NEBRASKA

CITY           SKY/WX    TMP DP  RH WIND       PRES   REMARKS
LINCOLN        CLOUDY    55  53  93 N10       30.10F FOG
OMAHA EPPLEY   CLOUDY    58  54  86 N12       30.07F
BEATRICE       CLOUDY    58  57  96 N9        30.08S FOG
FALLS CITY     LGT RAIN  68  63  84 S9        30.03S
NEBRASKA CITY  CLOUDY    67  59  75 N9        30.04F
PLATTSMOUTH    CLOUDY    61  56  83 N8        30.06F
$$

NEZ044-045-051>053-067-202300-
OMAHA AREA

CITY           SKY/WX    TMP DP  RH WIND       PRES   REMARKS
OMAHA EPPLEY   CLOUDY    58  54  86 N12       30.07F
BLAIR          LGT RAIN  55  53  95 N5        30.10R
FREMONT        CLOUDY    56  53  92 NE3       30.11R
MILLARD        CLOUDY    58  55  88 N6        30.09F
OFFUTT AFB     CLOUDY    59  57  92 N8        30.06F
PLATTSMOUTH    CLOUDY    61  56  83 N8        30.06F
WAHOO          RAIN      55  52  88 N7        30.10R
$$



USA.gov is the U.S. government's official web portal to all federal, state and local government web resources and services.